Regional Weather Roundup
Issued by NWS

Home | Current Version | Previous Version | Text Only | Print | Product List | Glossary Off
Versions: 1 2 3 4 5 6 7 8 9 10 11 12 13 14 15 16 17 18 19 20 21 22 23 24 25 26 27 28 29 30 31 32 33 34 35 36 37 38 39 40 41 42 43 44 45 46 47 48 49 50

000
ASUS43 KLOT 042006
RWRIL

ILLINOIS REGIONAL WEATHER ROUNDUP
NATIONAL WEATHER SERVICE CHICAGO/ROMEOVILLE IL
200 PM CST WED MAR 04 2015

NOTE: "FAIR" INDICATES FEW OR NO CLOUDS BELOW 12,000 FEET WITH NO
SIGNIFICANT WEATHER AND/OR OBSTRUCTIONS TO VISIBILITY.

* THESE STATIONS ARE NOT UNDER NWS QUALITY CONTROL. THEY ALSO MAY NOT
  REPORT WEATHER SUCH AS PRECIPITATION OR FOG.

ILZ001-002-007-009-015-016-024-042100-
NORTHWEST ILLINOIS

CITY           SKY/WX    TMP DP  RH WIND       PRES   REMARKS
MOLINE         SUNNY     19   2  47 NW18G24   30.26S WCI   4
STERLING*      SUNNY     19   7  58 NW13      30.21F WCI   7
SAVANNA*       SUNNY     20  -1  38 W8        30.23S WCI  11
$$

ILZ003-004-008-010-011-017-018-042100-
NORTH CENTRAL ILLINOIS

CITY           SKY/WX    TMP DP  RH WIND       PRES   REMARKS
ROCKFORD       MOSUNNY   17   2  51 NW14      30.19F WCI   3
FREEPORT*      SUNNY     15   0  50 W13       30.20F WCI   1
ROCHELLE*      SUNNY     17   4  56 NW16      30.19F WCI   1
DE KALB*       SUNNY     15   4  62 NW15G21   30.16F WCI   0
$$

ILZ005-006-012>014-019>023-042100-
NORTHEAST ILLINOIS

CITY           SKY/WX    TMP DP  RH WIND       PRES   REMARKS
CHICAGO-OHARE  PTSUNNY   21   6  52 N15       30.13F WCI   8
CHICAGO-MIDWAY PTSUNNY   22   5  48 NW15      30.14S WCI   9
AURORA         FAIR      19   5  54 NW17      30.16F WCI   4
LANSING*       PTSUNNY   23   6  47 NW13      30.13S WCI  11
WAUKEGAN       MOSUNNY   20   1  43 NW13G22   30.12S WCI   7
DUPAGE AIRPORT MOSUNNY   19   1  45 NW21      30.14F WCI   3
WHEELING       MOSUNNY   22   3  44 NW15      30.15F WCI   9
NORTHERLY ISL    N/A     22   5  48 W10         N/A  WCI  11
$$

LMZ740>746-042100-
SOUTHERN LAKE MICHIGAN

STATION/POSITION SKY/WX   TEMP    WIND        PRES    VSBY  WAVE
                          AIR SEA DIR/SP/G                  HT/PER
                          (F)     (DEG/KT/KT) (MB)    (MI)  (FT/S)
WAUKEGAN HARBOR            19                   N/A
HARRISON CRIB              20     300/ 16/ 20   N/A
BURNHAM HARBOR             22     290/ 14/ 17   N/A
CALUMET HARBOR             22     320/  9/ 16 1019.5R
MICHIGAN CITY              21     300/ 16/ 20   N/A
$$

ILZ025>027-034>036-040-047-049-050-058-095>099-042100-
WEST-CENTRAL ILLINOIS

CITY           SKY/WX    TMP DP  RH WIND       PRES   REMARKS
QUINCY         PTSUNNY   21   4  47 N14       30.25S WCI   8
MACOMB*        SUNNY     20   9  62 NW17      30.28S WCI   5
PITTSFIELD*    CLOUDY    23   6  48 N16       30.25F WCI   9
$$

ILZ028>032-037-038-041>044-048-051>054-059>061-042100-
CENTRAL ILLINOIS

CITY           SKY/WX    TMP DP  RH WIND       PRES   REMARKS
BLOOMINGTON    PTSUNNY   19   6  57 NW17      30.19S WCI   4
DECATUR        CLOUDY    20   6  55 NW17      30.18F WCI   5
PEORIA         MOSUNNY   21   3  45 NW12      30.24R WCI   9
LINCOLN*       CLOUDY    23   6  49 NW12G17   30.24S WCI  12
SPRINGFIELD    CLOUDY    21   6  52 N14       30.23F WCI   8
TAYLORVILLE    NOT AVBL
$$

ILZ033-039-045-046-055>057-062-063-042100-
EAST-CENTRAL ILLINOIS

CITY           SKY/WX    TMP DP  RH WIND       PRES   REMARKS
CHAMPAIGN      CLOUDY    18   7  62 NW20      30.17F WCI   2
DANVILLE*      CLOUDY    18   9  70 NW15      30.12F WCI   3
RANTOUL*       CLOUDY    20  10  65 NW16      30.17F WCI   5
MATTOON        FLURRIES  19  10  68 NW18      30.15F WCI   4
$$

ILZ079-100>102-042100-
SOUTHWEST ILLINOIS

CITY           SKY/WX    TMP DP  RH WIND       PRES   REMARKS
ALTON          CLOUDY    21   1  42 NW10G16   30.24S WCI  10
BELLEVILLE     LGT SNOW  19  16  86 N13       30.22R VSB 3/4 WCI   7
CAHOKIA*       CLOUDY    23   9  55 N13       30.23S WCI  11
$$

ILZ064>066-069>071-074>076-080>082-084>086-088>090-092>094-042100-
SOUTH-CENTRAL ILLINOIS

CITY           SKY/WX    TMP DP  RH WIND       PRES   REMARKS
CARBONDALE     FOG       21  17  84 N14       30.17R VSB 1/2 WCI   8
CAIRO*         LGT SNOW N/A N/A N/A N15G21    30.13R
MARION         LGT SNOW  21  19  93 N12G17    30.18R VSB 3/4 WCI   9
MT. VERNON     CLOUDY    19  14  79 NW3       30.17R
SALEM*         LGT SNOW  21  16  80 NW14      30.19R VSB 1   WCI   8
METROPOLIS*    LGT SNOW  27  27 100 N16G22    30.11R WCI  14
$$

ILZ067-068-072-073-078-083-087-091-042100-
SOUTHEAST ILLINOIS

CITY           SKY/WX    TMP DP  RH WIND       PRES   REMARKS
LAWRENCEVILLE  LGT SNOW  23  17  78 NW17      30.14F WCI   9
HARRISBURG*    SNOW      23  22  96 N10G18    30.16R VSB 1/2 WCI  12
ROBINSON*      CLOUDY    21  13  72 N18       30.15F WCI   6
CARMI*         SNOW      25  23  95 CALM      30.15R VSB 1/2
$$

ABBREVIATIONS USED IN REMARKS
   TC - TEMPERATURE IN CELSIUS
  WCI - WIND CHILL INDEX
   HX - HEAT INDEX
  VSB - VISIBILITY
$$



USA.gov is the U.S. government's official web portal to all federal, state and local government web resources and services.